Regional Weather Roundup
Issued by NWS

Home | Current Version | Previous Version | Text Only | Print | Product List | Glossary On
Versions: 1 2 3 4 5 6 7 8 9 10 11 12 13 14 15 16 17 18 19 20 21 22 23 24 25 26 27 28 29 30 31 32 33 34 35 36 37 38 39 40 41 42 43 44 45 46 47 48 49 50
573
ASUS44 KLIX 250805
RWRLA
LOUISIANA WEATHER ROUNDUP
NATIONAL WEATHER SERVICE NEW ORLEANS LA
300 AM CDT SAT OCT 25 2014

NOTE: "FAIR" INDICATES FEW OR NO CLOUDS BELOW 12,000 FEET WITH NO
      SIGNIFICANT WEATHER AND/OR OBSTRUCTIONS TO VISIBILITY.
      SKY/WX - SKY CONDITION AND SIGNIFICANT WEATHER.
      TMP - AIR TEMPERATURE.    DP   - DEWPOINT TEMPERATURE.
      RH  - RELATIVE HUMIDITY.  PRES - PRESSURE.
      HX  - HEAT INDEX.         WCI  - WIND CHILL INDEX.

*  THESE STATIONS ARE NOT NWS OR FAA STATIONS AND ARE NOT UNDER
   NWS QUALITY CONTROL.

LAZ040-048-061>063-065-066-069-250900-
SOUTHEAST LOUISIANA

CITY           SKY/WX    TMP DP  RH WIND       PRES   REMARKS
N.O. AUDUBON     N/A     61  53  74 MISG        N/A
N.O. INTL ARPT CLEAR     62  52  69 N6        30.09F
N.O. LAKEFRONT CLEAR     67  52  58 N15       30.09F
N.O. DOWNTOWN* FAIR      64  48  55 N6        30.09F
SLIDELL        CLEAR     46  43  89 CALM      30.09S
BATON ROUGE    CLEAR     49  47  93 CALM      30.11S
BOOTHVILLE     CLEAR     68  59  73 VRB6      30.07F
BELLE CHASSE   CLEAR     51  48  89 CALM      30.09F
BOGALUSA*        N/A     47  44  90 CALM      30.12S
NEW ROADS*     FAIR      48  47  97 CALM      30.12R
GONZALES*      FAIR      50  50 100 CALM      30.10S
HAMMOND*       CLEAR     48  45  87 N5        30.12S
HOUMA*         CLEAR     54  50  87 N5        30.09S
PORT FOURCHON* SUNNY     66  59  77 N8        30.11S

$$

LAZ041-044-053-054-250900-
SOUTHWEST LOUISIANA

CITY           SKY/WX    TMP DP  RH WIND       PRES   REMARKS
LAKE CHARLES   CLEAR     53  51  93 CALM      30.13S
LAFAYETTE      CLEAR     53  50  89 CALM      30.11F
PATTERSON      FAIR      54  50  87 CALM      30.12F
SALT POINT       N/A     58  51  78 N3        30.10F
NEW IBERIA     CLEAR     52  49  89 NW3       30.12S
CHENAULT AIRPK CLEAR     53  51  92 CALM      30.13S

$$

LAZ027-028-250900-
CENTRAL LOUISIANA

CITY           SKY/WX    TMP DP  RH WIND       PRES   REMARKS
FORT POLK      CLEAR     51  49  94 N1        30.12F
ALEXANDRIA INT CLEAR     51  50  96 CALM      30.11F
ALEXANDRIA     CLEAR     45  45 100 CALM      30.12F

$$

LAZ001-002-250900-
NORTHWEST LOUISIANA

CITY           SKY/WX    TMP DP  RH WIND       PRES   REMARKS
SHREVEPORT     CLEAR     55  53  93 CALM      30.12S
BARKSDALE AFB  CLEAR     53  52  96 CALM      30.13S
DTN SHREVEPORT CLEAR     55  52  89 CALM      30.13S

$$

LAZ014-016-250900-
NORTHEAST LOUISIANA

CITY           SKY/WX    TMP DP  RH WIND       PRES   REMARKS
MONROE         CLEAR     51  49  92 CALM      30.14S FOG
TALLULAH       CLEAR     46  44  93 CALM      30.12F

$$




USA.gov is the U.S. government's official web portal to all federal, state and local government web resources and services.